Terminal Aerodrome Forecast
Issued by NWS

Current Version | Previous Version | Graphics & Text | Print | Product List | Glossary On
Versions: 1 2 3 4 5 6 7 8 9 10 11 12 13 14 15 16 17 18 19 20 21 22 23 24 25 26 27 28 29 30 31 32 33 34
021
FTUS41 KRNK 220538
TAFLWB
TAF
KLWB 220538Z 2206/2306 26004KT P6SM SCT025 OVC040
      TEMPO 2206/2210 OVC025
     FM221000 27005KT 4SM BR OVC009
     FM221500 32006KT P6SM SCT025 OVC030
     FM221900 33009KT P6SM VCSH OVC035
     FM230300 00000KT P6SM BKN035=

USA.gov is the U.S. government's official web portal to all federal, state and local government web resources and services.